<?xml version="1.0" encoding="UTF-8" standalone="no" ?>
<gpx xmlns="http://www.topografix.com/GPX/1/1" xmlns:xsi="http://www.w3.org/2001/XMLSchema-instance" xsi:schemaLocation="http://www.topografix.com/GPX/1/1 http://www.topografix.com/GPX/1/1/gpx.xsd" version="1.1" creator="VisuGPX - https://www.visugpx.com">
  <metadata>
    <name>LAVAULT LES CENT MARCHES</name>
    <desc><![CDATA[Attention : Lampe de poche obligatoire !
]]></desc>
  </metadata>
  <trk>
    <name><![CDATA[Lavault Sainte Anne Les cent Marches JFN]]></name>
    <trkseg>
      <trkpt lat="46.31344" lon="2.60375">
        <ele>217.9</ele>
        <time>2016-01-08T09:06:24Z</time>
      </trkpt>
      <trkpt lat="46.31335" lon="2.60401">
        <ele>215.5</ele>
        <time>2016-01-08T09:06:24Z</time>
      </trkpt>
      <trkpt lat="46.31323" lon="2.60375">
        <ele>217</ele>
      </trkpt>
      <trkpt lat="46.3131" lon="2.60362">
        <ele>217.1</ele>
      </trkpt>
      <trkpt lat="46.31293" lon="2.60343">
        <ele>216.8</ele>
        <time>2016-01-08T09:06:24Z</time>
      </trkpt>
      <trkpt lat="46.31293" lon="2.60327">
        <ele>218</ele>
      </trkpt>
      <trkpt lat="46.31291" lon="2.60308">
        <ele>219.8</ele>
      </trkpt>
      <trkpt lat="46.3129" lon="2.60298">
        <ele>220.8</ele>
      </trkpt>
      <trkpt lat="46.31289" lon="2.60289">
        <ele>221.5</ele>
        <time>2016-01-08T09:06:24Z</time>
      </trkpt>
      <trkpt lat="46.31275" lon="2.60274">
        <ele>221.9</ele>
      </trkpt>
      <trkpt lat="46.31269" lon="2.60268">
        <ele>222</ele>
        <time>2016-01-08T09:06:24Z</time>
      </trkpt>
      <trkpt lat="46.31259" lon="2.60248">
        <ele>223.3</ele>
      </trkpt>
      <trkpt lat="46.31241" lon="2.60215">
        <ele>226.3</ele>
        <time>2016-01-08T09:06:24Z</time>
      </trkpt>
      <trkpt lat="46.31228" lon="2.60195">
        <ele>226.9</ele>
      </trkpt>
      <trkpt lat="46.31213" lon="2.60173">
        <ele>227.3</ele>
      </trkpt>
      <trkpt lat="46.31201" lon="2.60151">
        <ele>228</ele>
        <time>2016-01-08T09:06:24Z</time>
      </trkpt>
      <trkpt lat="46.3119" lon="2.60132">
        <ele>228.9</ele>
      </trkpt>
      <trkpt lat="46.31179" lon="2.60122">
        <ele>228.5</ele>
      </trkpt>
      <trkpt lat="46.31163" lon="2.60104">
        <ele>228.2</ele>
      </trkpt>
      <trkpt lat="46.31152" lon="2.6009">
        <ele>228.2</ele>
      </trkpt>
      <trkpt lat="46.3115" lon="2.60077">
        <ele>229.6</ele>
        <time>2016-01-08T09:06:24Z</time>
      </trkpt>
      <trkpt lat="46.31148" lon="2.60061">
        <ele>231.1</ele>
      </trkpt>
      <trkpt lat="46.31145" lon="2.60049">
        <ele>232.2</ele>
      </trkpt>
      <trkpt lat="46.3114" lon="2.60033">
        <ele>233.3</ele>
      </trkpt>
      <trkpt lat="46.31132" lon="2.60022">
        <ele>233</ele>
        <time>2016-01-08T09:06:24Z</time>
      </trkpt>
      <trkpt lat="46.31099" lon="2.59977">
        <ele>232</ele>
        <time>2016-01-08T09:06:24Z</time>
      </trkpt>
      <trkpt lat="46.31059" lon="2.59824">
        <ele>243.6</ele>
        <time>2016-01-08T09:06:24Z</time>
      </trkpt>
      <trkpt lat="46.31044" lon="2.59782">
        <ele>242.9</ele>
      </trkpt>
      <trkpt lat="46.31037" lon="2.59763">
        <ele>242.9</ele>
      </trkpt>
      <trkpt lat="46.31035" lon="2.59755">
        <ele>243.4</ele>
      </trkpt>
      <trkpt lat="46.3103" lon="2.59737">
        <ele>243.7</ele>
        <time>2016-01-08T09:06:24Z</time>
      </trkpt>
      <trkpt lat="46.31037" lon="2.59722">
        <ele>245.9</ele>
      </trkpt>
      <trkpt lat="46.31062" lon="2.5968">
        <ele>250.9</ele>
        <time>2016-01-08T09:06:24Z</time>
      </trkpt>
      <trkpt lat="46.31103" lon="2.59679">
        <ele>255.2</ele>
        <time>2016-01-08T09:06:24Z</time>
      </trkpt>
      <trkpt lat="46.31156" lon="2.59669">
        <ele>261.6</ele>
      </trkpt>
      <trkpt lat="46.31186" lon="2.59668">
        <ele>263.2</ele>
      </trkpt>
      <trkpt lat="46.31211" lon="2.59668">
        <ele>263.5</ele>
      </trkpt>
      <trkpt lat="46.31223" lon="2.59658">
        <ele>263.7</ele>
      </trkpt>
      <trkpt lat="46.31234" lon="2.5964">
        <ele>263.9</ele>
      </trkpt>
      <trkpt lat="46.31247" lon="2.59607">
        <ele>264</ele>
      </trkpt>
      <trkpt lat="46.31266" lon="2.5953">
        <ele>264.2</ele>
        <time>2016-01-08T09:06:24Z</time>
      </trkpt>
      <trkpt lat="46.31277" lon="2.59525">
        <ele>263.9</ele>
      </trkpt>
      <trkpt lat="46.31295" lon="2.59476">
        <ele>262.6</ele>
      </trkpt>
      <trkpt lat="46.31312" lon="2.59435">
        <ele>260.6</ele>
      </trkpt>
      <trkpt lat="46.3132" lon="2.59414">
        <ele>259.7</ele>
      </trkpt>
      <trkpt lat="46.31322" lon="2.59395">
        <ele>259.6</ele>
        <time>2016-01-08T09:06:24Z</time>
      </trkpt>
      <trkpt lat="46.31322" lon="2.59364">
        <ele>259.5</ele>
      </trkpt>
      <trkpt lat="46.31322" lon="2.59327">
        <ele>260</ele>
      </trkpt>
      <trkpt lat="46.31318" lon="2.59286">
        <ele>262.9</ele>
      </trkpt>
      <trkpt lat="46.31316" lon="2.5924">
        <ele>265.7</ele>
      </trkpt>
      <trkpt lat="46.31312" lon="2.59181">
        <ele>268.4</ele>
      </trkpt>
      <trkpt lat="46.3131" lon="2.59145">
        <ele>269.8</ele>
        <time>2016-01-08T09:06:24Z</time>
      </trkpt>
      <trkpt lat="46.31307" lon="2.59121">
        <ele>270.6</ele>
      </trkpt>
      <trkpt lat="46.31302" lon="2.59097">
        <ele>271.5</ele>
      </trkpt>
      <trkpt lat="46.31299" lon="2.5908">
        <ele>272.1</ele>
      </trkpt>
      <trkpt lat="46.31292" lon="2.59053">
        <ele>272.5</ele>
      </trkpt>
      <trkpt lat="46.31284" lon="2.59024">
        <ele>273</ele>
      </trkpt>
      <trkpt lat="46.3127" lon="2.5897">
        <ele>274</ele>
      </trkpt>
      <trkpt lat="46.31254" lon="2.58914">
        <ele>275.2</ele>
      </trkpt>
      <trkpt lat="46.31234" lon="2.58848">
        <ele>277.7</ele>
      </trkpt>
      <trkpt lat="46.31223" lon="2.5881">
        <ele>278.3</ele>
      </trkpt>
      <trkpt lat="46.31216" lon="2.58792">
        <ele>278.4</ele>
      </trkpt>
      <trkpt lat="46.31206" lon="2.58767">
        <ele>278.5</ele>
      </trkpt>
      <trkpt lat="46.31197" lon="2.58747">
        <ele>278.7</ele>
      </trkpt>
      <trkpt lat="46.3118" lon="2.58695">
        <ele>279.7</ele>
      </trkpt>
      <trkpt lat="46.31168" lon="2.58652">
        <ele>280.2</ele>
      </trkpt>
      <trkpt lat="46.31159" lon="2.58616">
        <ele>280.7</ele>
      </trkpt>
      <trkpt lat="46.31148" lon="2.58575">
        <ele>281.4</ele>
      </trkpt>
      <trkpt lat="46.31138" lon="2.58526">
        <ele>282.3</ele>
      </trkpt>
      <trkpt lat="46.31129" lon="2.58478">
        <ele>283.3</ele>
      </trkpt>
      <trkpt lat="46.31122" lon="2.58439">
        <ele>284.2</ele>
      </trkpt>
      <trkpt lat="46.31105" lon="2.58364">
        <ele>286.4</ele>
      </trkpt>
      <trkpt lat="46.31098" lon="2.58337">
        <ele>287.1</ele>
      </trkpt>
      <trkpt lat="46.31097" lon="2.58324">
        <ele>287</ele>
        <time>2016-01-08T09:06:24Z</time>
      </trkpt>
      <trkpt lat="46.31094" lon="2.58311">
        <ele>286.8</ele>
      </trkpt>
      <trkpt lat="46.3109" lon="2.58299">
        <ele>286.6</ele>
      </trkpt>
      <trkpt lat="46.31083" lon="2.58285">
        <ele>286.4</ele>
      </trkpt>
      <trkpt lat="46.31074" lon="2.58273">
        <ele>286.1</ele>
      </trkpt>
      <trkpt lat="46.31063" lon="2.58261">
        <ele>285.8</ele>
      </trkpt>
      <trkpt lat="46.31054" lon="2.58254">
        <ele>285.7</ele>
      </trkpt>
      <trkpt lat="46.31041" lon="2.58251">
        <ele>285.5</ele>
      </trkpt>
      <trkpt lat="46.31015" lon="2.58256">
        <ele>285.1</ele>
      </trkpt>
      <trkpt lat="46.30983" lon="2.58261">
        <ele>284.5</ele>
      </trkpt>
      <trkpt lat="46.30942" lon="2.58249">
        <ele>283.6</ele>
      </trkpt>
      <trkpt lat="46.30912" lon="2.58236">
        <ele>283</ele>
      </trkpt>
      <trkpt lat="46.30849" lon="2.58201">
        <ele>283.3</ele>
      </trkpt>
      <trkpt lat="46.30789" lon="2.58158">
        <ele>284</ele>
      </trkpt>
      <trkpt lat="46.30752" lon="2.58132">
        <ele>284.5</ele>
      </trkpt>
      <trkpt lat="46.30701" lon="2.58086">
        <ele>286.4</ele>
      </trkpt>
      <trkpt lat="46.30684" lon="2.58068">
        <ele>286.9</ele>
      </trkpt>
      <trkpt lat="46.30673" lon="2.58063">
        <ele>287.2</ele>
      </trkpt>
      <trkpt lat="46.30628" lon="2.58038">
        <ele>288.8</ele>
      </trkpt>
      <trkpt lat="46.30621" lon="2.58034">
        <ele>289.2</ele>
      </trkpt>
      <trkpt lat="46.30612" lon="2.58017">
        <ele>289.8</ele>
      </trkpt>
      <trkpt lat="46.30601" lon="2.57995">
        <ele>290.9</ele>
      </trkpt>
      <trkpt lat="46.3058" lon="2.57965">
        <ele>293.5</ele>
      </trkpt>
      <trkpt lat="46.30543" lon="2.57921">
        <ele>297.3</ele>
      </trkpt>
      <trkpt lat="46.30523" lon="2.57897">
        <ele>298.7</ele>
      </trkpt>
      <trkpt lat="46.3048" lon="2.57857">
        <ele>300.4</ele>
      </trkpt>
      <trkpt lat="46.30447" lon="2.57825">
        <ele>301.2</ele>
      </trkpt>
      <trkpt lat="46.30414" lon="2.57795">
        <ele>302.1</ele>
      </trkpt>
      <trkpt lat="46.30376" lon="2.57763">
        <ele>303.5</ele>
      </trkpt>
      <trkpt lat="46.30344" lon="2.57733">
        <ele>304.2</ele>
      </trkpt>
      <trkpt lat="46.30301" lon="2.57691">
        <ele>304.6</ele>
      </trkpt>
      <trkpt lat="46.30258" lon="2.57655">
        <ele>305.8</ele>
      </trkpt>
      <trkpt lat="46.3022" lon="2.57618">
        <ele>307</ele>
      </trkpt>
      <trkpt lat="46.30189" lon="2.57592">
        <ele>307.6</ele>
      </trkpt>
      <trkpt lat="46.30137" lon="2.57538">
        <ele>310.2</ele>
      </trkpt>
      <trkpt lat="46.30076" lon="2.57485">
        <ele>313.6</ele>
      </trkpt>
      <trkpt lat="46.30028" lon="2.57438">
        <ele>313.9</ele>
      </trkpt>
      <trkpt lat="46.29972" lon="2.57391">
        <ele>315.2</ele>
      </trkpt>
      <trkpt lat="46.29929" lon="2.57353">
        <ele>315.8</ele>
      </trkpt>
      <trkpt lat="46.29883" lon="2.57311">
        <ele>317.2</ele>
      </trkpt>
      <trkpt lat="46.29834" lon="2.57264">
        <ele>320.8</ele>
      </trkpt>
      <trkpt lat="46.29779" lon="2.57213">
        <ele>324.7</ele>
      </trkpt>
      <trkpt lat="46.2977" lon="2.57209">
        <ele>325.3</ele>
        <time>2016-01-08T09:06:24Z</time>
      </trkpt>
      <trkpt lat="46.29738" lon="2.57224">
        <ele>328.1</ele>
      </trkpt>
      <trkpt lat="46.2971" lon="2.57236">
        <ele>329.4</ele>
      </trkpt>
      <trkpt lat="46.29691" lon="2.57242">
        <ele>330.1</ele>
      </trkpt>
      <trkpt lat="46.29675" lon="2.57246">
        <ele>330.6</ele>
      </trkpt>
      <trkpt lat="46.29661" lon="2.57247">
        <ele>331.1</ele>
      </trkpt>
      <trkpt lat="46.29642" lon="2.57248">
        <ele>331.8</ele>
      </trkpt>
      <trkpt lat="46.29624" lon="2.57247">
        <ele>332.5</ele>
      </trkpt>
      <trkpt lat="46.29614" lon="2.57246">
        <ele>332.8</ele>
      </trkpt>
      <trkpt lat="46.29606" lon="2.57255">
        <ele>333.3</ele>
        <time>2016-01-08T09:06:24Z</time>
      </trkpt>
      <trkpt lat="46.296" lon="2.57273">
        <ele>333.7</ele>
      </trkpt>
      <trkpt lat="46.29595" lon="2.57311">
        <ele>334.4</ele>
      </trkpt>
      <trkpt lat="46.29586" lon="2.57366">
        <ele>334.2</ele>
      </trkpt>
      <trkpt lat="46.29575" lon="2.57436">
        <ele>331.9</ele>
      </trkpt>
      <trkpt lat="46.29563" lon="2.57524">
        <ele>327.7</ele>
      </trkpt>
      <trkpt lat="46.29554" lon="2.57571">
        <ele>325.6</ele>
      </trkpt>
      <trkpt lat="46.29552" lon="2.57623">
        <ele>323.6</ele>
      </trkpt>
      <trkpt lat="46.29552" lon="2.57679">
        <ele>321.7</ele>
      </trkpt>
      <trkpt lat="46.29549" lon="2.57739">
        <ele>320.3</ele>
      </trkpt>
      <trkpt lat="46.29548" lon="2.57768">
        <ele>319.5</ele>
      </trkpt>
      <trkpt lat="46.29546" lon="2.57784">
        <ele>319</ele>
      </trkpt>
      <trkpt lat="46.29537" lon="2.57816">
        <ele>318.1</ele>
      </trkpt>
      <trkpt lat="46.29522" lon="2.57862">
        <ele>316.7</ele>
      </trkpt>
      <trkpt lat="46.29508" lon="2.57908">
        <ele>315.2</ele>
      </trkpt>
      <trkpt lat="46.29501" lon="2.57932">
        <ele>314.6</ele>
        <time>2016-01-08T09:06:24Z</time>
      </trkpt>
      <trkpt lat="46.29493" lon="2.57969">
        <ele>314</ele>
      </trkpt>
      <trkpt lat="46.29484" lon="2.58024">
        <ele>313.5</ele>
      </trkpt>
      <trkpt lat="46.29474" lon="2.58084">
        <ele>313.3</ele>
      </trkpt>
      <trkpt lat="46.29463" lon="2.58141">
        <ele>313.8</ele>
      </trkpt>
      <trkpt lat="46.29458" lon="2.58169">
        <ele>314</ele>
        <time>2016-01-08T09:06:24Z</time>
      </trkpt>
      <trkpt lat="46.29448" lon="2.58162">
        <ele>314.3</ele>
      </trkpt>
      <trkpt lat="46.2944" lon="2.58156">
        <ele>314.5</ele>
      </trkpt>
      <trkpt lat="46.29428" lon="2.58156">
        <ele>314.8</ele>
      </trkpt>
      <trkpt lat="46.29416" lon="2.58152">
        <ele>315.2</ele>
      </trkpt>
      <trkpt lat="46.294" lon="2.58145">
        <ele>315.3</ele>
      </trkpt>
      <trkpt lat="46.29374" lon="2.58134">
        <ele>315.6</ele>
      </trkpt>
      <trkpt lat="46.29358" lon="2.58125">
        <ele>315.8</ele>
      </trkpt>
      <trkpt lat="46.29334" lon="2.58115">
        <ele>316.2</ele>
      </trkpt>
      <trkpt lat="46.29307" lon="2.58104">
        <ele>316.8</ele>
      </trkpt>
      <trkpt lat="46.29298" lon="2.581">
        <ele>317.1</ele>
      </trkpt>
      <trkpt lat="46.2929" lon="2.58094">
        <ele>317.3</ele>
      </trkpt>
      <trkpt lat="46.29281" lon="2.58087">
        <ele>317.6</ele>
      </trkpt>
      <trkpt lat="46.29273" lon="2.58081">
        <ele>317.8</ele>
      </trkpt>
      <trkpt lat="46.29263" lon="2.58072">
        <ele>318.1</ele>
      </trkpt>
      <trkpt lat="46.29251" lon="2.5806">
        <ele>318.6</ele>
      </trkpt>
      <trkpt lat="46.29235" lon="2.58044">
        <ele>319.3</ele>
      </trkpt>
      <trkpt lat="46.29216" lon="2.58028">
        <ele>320.1</ele>
      </trkpt>
      <trkpt lat="46.29205" lon="2.58014">
        <ele>320.8</ele>
      </trkpt>
      <trkpt lat="46.29192" lon="2.58004">
        <ele>321.3</ele>
      </trkpt>
      <trkpt lat="46.29185" lon="2.57996">
        <ele>321.6</ele>
      </trkpt>
      <trkpt lat="46.29171" lon="2.5799">
        <ele>322</ele>
      </trkpt>
      <trkpt lat="46.29163" lon="2.57985">
        <ele>322.2</ele>
      </trkpt>
      <trkpt lat="46.29132" lon="2.57975">
        <ele>322.1</ele>
      </trkpt>
      <trkpt lat="46.29108" lon="2.57968">
        <ele>322.2</ele>
      </trkpt>
      <trkpt lat="46.29086" lon="2.57962">
        <ele>322.4</ele>
      </trkpt>
      <trkpt lat="46.29067" lon="2.57957">
        <ele>322.5</ele>
      </trkpt>
      <trkpt lat="46.29047" lon="2.57951">
        <ele>322.6</ele>
      </trkpt>
      <trkpt lat="46.29026" lon="2.57943">
        <ele>322.8</ele>
      </trkpt>
      <trkpt lat="46.29008" lon="2.57937">
        <ele>323.1</ele>
      </trkpt>
      <trkpt lat="46.28995" lon="2.57929">
        <ele>323.4</ele>
      </trkpt>
      <trkpt lat="46.28968" lon="2.57914">
        <ele>324.1</ele>
      </trkpt>
      <trkpt lat="46.28929" lon="2.57889">
        <ele>325.3</ele>
      </trkpt>
      <trkpt lat="46.28894" lon="2.57868">
        <ele>325.6</ele>
      </trkpt>
      <trkpt lat="46.28867" lon="2.5785">
        <ele>325.8</ele>
      </trkpt>
      <trkpt lat="46.28845" lon="2.57836">
        <ele>326.1</ele>
      </trkpt>
      <trkpt lat="46.28828" lon="2.57828">
        <ele>325.9</ele>
      </trkpt>
      <trkpt lat="46.28816" lon="2.57819">
        <ele>325.4</ele>
      </trkpt>
      <trkpt lat="46.28808" lon="2.57815">
        <ele>325.1</ele>
      </trkpt>
      <trkpt lat="46.28798" lon="2.57814">
        <ele>324.5</ele>
        <time>2016-01-08T09:06:24Z</time>
      </trkpt>
      <trkpt lat="46.2879" lon="2.57816">
        <ele>323.8</ele>
      </trkpt>
      <trkpt lat="46.28781" lon="2.57825">
        <ele>322.8</ele>
      </trkpt>
      <trkpt lat="46.28766" lon="2.57847">
        <ele>320.7</ele>
      </trkpt>
      <trkpt lat="46.28741" lon="2.57887">
        <ele>319.4</ele>
      </trkpt>
      <trkpt lat="46.28722" lon="2.57914">
        <ele>320.7</ele>
      </trkpt>
      <trkpt lat="46.28711" lon="2.57927">
        <ele>322</ele>
      </trkpt>
      <trkpt lat="46.28717" lon="2.57934">
        <ele>321.7</ele>
        <time>2016-01-08T09:06:24Z</time>
      </trkpt>
      <trkpt lat="46.28731" lon="2.57946">
        <ele>320.5</ele>
      </trkpt>
      <trkpt lat="46.28744" lon="2.57959">
        <ele>319.6</ele>
      </trkpt>
      <trkpt lat="46.28766" lon="2.57991">
        <ele>318.8</ele>
      </trkpt>
      <trkpt lat="46.28804" lon="2.58045">
        <ele>317</ele>
      </trkpt>
      <trkpt lat="46.28854" lon="2.58114">
        <ele>314.3</ele>
      </trkpt>
      <trkpt lat="46.28911" lon="2.58196">
        <ele>311.5</ele>
      </trkpt>
      <trkpt lat="46.28959" lon="2.58266">
        <ele>306.9</ele>
      </trkpt>
      <trkpt lat="46.29" lon="2.58324">
        <ele>302.5</ele>
      </trkpt>
      <trkpt lat="46.29038" lon="2.58378">
        <ele>296.4</ele>
      </trkpt>
      <trkpt lat="46.29064" lon="2.58417">
        <ele>291.2</ele>
      </trkpt>
      <trkpt lat="46.29075" lon="2.58431">
        <ele>290.3</ele>
      </trkpt>
      <trkpt lat="46.29081" lon="2.58432">
        <ele>290.2</ele>
        <time>2016-01-08T09:06:24Z</time>
      </trkpt>
      <trkpt lat="46.29102" lon="2.5843">
        <ele>290.7</ele>
      </trkpt>
      <trkpt lat="46.29129" lon="2.58429">
        <ele>291.4</ele>
      </trkpt>
      <trkpt lat="46.29149" lon="2.58428">
        <ele>292</ele>
      </trkpt>
      <trkpt lat="46.29167" lon="2.58434">
        <ele>292</ele>
      </trkpt>
      <trkpt lat="46.29192" lon="2.58445">
        <ele>292.5</ele>
      </trkpt>
      <trkpt lat="46.29225" lon="2.58461">
        <ele>292.8</ele>
      </trkpt>
      <trkpt lat="46.29241" lon="2.5847">
        <ele>292.8</ele>
      </trkpt>
      <trkpt lat="46.29262" lon="2.58482">
        <ele>293</ele>
        <time>2016-01-08T09:06:24Z</time>
      </trkpt>
      <trkpt lat="46.2929" lon="2.58505">
        <ele>293.3</ele>
      </trkpt>
      <trkpt lat="46.29306" lon="2.58519">
        <ele>293.8</ele>
      </trkpt>
      <trkpt lat="46.29317" lon="2.58531">
        <ele>294</ele>
      </trkpt>
      <trkpt lat="46.2934" lon="2.58557">
        <ele>294.2</ele>
      </trkpt>
      <trkpt lat="46.29363" lon="2.58582">
        <ele>294.2</ele>
      </trkpt>
      <trkpt lat="46.2938" lon="2.58601">
        <ele>294.2</ele>
      </trkpt>
      <trkpt lat="46.29408" lon="2.58628">
        <ele>294.2</ele>
      </trkpt>
      <trkpt lat="46.29426" lon="2.58644">
        <ele>294</ele>
      </trkpt>
      <trkpt lat="46.29441" lon="2.58656">
        <ele>293.8</ele>
        <time>2016-01-08T09:06:24Z</time>
      </trkpt>
      <trkpt lat="46.29456" lon="2.58653">
        <ele>294.1</ele>
      </trkpt>
      <trkpt lat="46.29472" lon="2.58647">
        <ele>294.6</ele>
      </trkpt>
      <trkpt lat="46.29489" lon="2.58641">
        <ele>295.1</ele>
      </trkpt>
      <trkpt lat="46.29503" lon="2.58636">
        <ele>295.6</ele>
      </trkpt>
      <trkpt lat="46.29509" lon="2.58638">
        <ele>295.6</ele>
        <time>2016-01-08T09:06:24Z</time>
      </trkpt>
      <trkpt lat="46.29516" lon="2.58648">
        <ele>295.2</ele>
      </trkpt>
      <trkpt lat="46.29528" lon="2.58658">
        <ele>294.8</ele>
      </trkpt>
      <trkpt lat="46.29539" lon="2.58675">
        <ele>294.2</ele>
      </trkpt>
      <trkpt lat="46.29552" lon="2.58687">
        <ele>293.9</ele>
      </trkpt>
      <trkpt lat="46.29585" lon="2.58711">
        <ele>293.4</ele>
      </trkpt>
      <trkpt lat="46.29609" lon="2.58728">
        <ele>293.3</ele>
      </trkpt>
      <trkpt lat="46.29621" lon="2.58735">
        <ele>293.4</ele>
      </trkpt>
      <trkpt lat="46.29633" lon="2.58738">
        <ele>293.5</ele>
      </trkpt>
      <trkpt lat="46.29649" lon="2.58742">
        <ele>293.8</ele>
      </trkpt>
      <trkpt lat="46.29671" lon="2.5875">
        <ele>294</ele>
      </trkpt>
      <trkpt lat="46.29687" lon="2.58752">
        <ele>294</ele>
      </trkpt>
      <trkpt lat="46.29705" lon="2.5876">
        <ele>293.8</ele>
      </trkpt>
      <trkpt lat="46.29728" lon="2.58772">
        <ele>293.6</ele>
      </trkpt>
      <trkpt lat="46.29746" lon="2.58779">
        <ele>293.6</ele>
      </trkpt>
      <trkpt lat="46.29761" lon="2.58787">
        <ele>293.4</ele>
      </trkpt>
      <trkpt lat="46.29782" lon="2.58803">
        <ele>292.6</ele>
      </trkpt>
      <trkpt lat="46.29804" lon="2.58821">
        <ele>291.5</ele>
      </trkpt>
      <trkpt lat="46.29821" lon="2.58837">
        <ele>290.3</ele>
      </trkpt>
      <trkpt lat="46.29843" lon="2.58862">
        <ele>289</ele>
      </trkpt>
      <trkpt lat="46.2986" lon="2.58888">
        <ele>287.7</ele>
      </trkpt>
      <trkpt lat="46.29882" lon="2.5892">
        <ele>286.2</ele>
      </trkpt>
      <trkpt lat="46.29901" lon="2.58949">
        <ele>285.7</ele>
      </trkpt>
      <trkpt lat="46.29909" lon="2.58962">
        <ele>285.7</ele>
        <time>2016-01-08T09:06:24Z</time>
      </trkpt>
      <trkpt lat="46.29908" lon="2.58969">
        <ele>285.7</ele>
      </trkpt>
      <trkpt lat="46.29904" lon="2.5898">
        <ele>285.9</ele>
      </trkpt>
      <trkpt lat="46.299" lon="2.58991">
        <ele>286</ele>
      </trkpt>
      <trkpt lat="46.29894" lon="2.59003">
        <ele>285.9</ele>
      </trkpt>
      <trkpt lat="46.29894" lon="2.59011">
        <ele>285.7</ele>
      </trkpt>
      <trkpt lat="46.29903" lon="2.59025">
        <ele>285.4</ele>
      </trkpt>
      <trkpt lat="46.29913" lon="2.59039">
        <ele>285</ele>
      </trkpt>
      <trkpt lat="46.29922" lon="2.59049">
        <ele>284.7</ele>
      </trkpt>
      <trkpt lat="46.29943" lon="2.59067">
        <ele>284</ele>
      </trkpt>
      <trkpt lat="46.29988" lon="2.59097">
        <ele>282.9</ele>
      </trkpt>
      <trkpt lat="46.30001" lon="2.59114">
        <ele>282.6</ele>
      </trkpt>
      <trkpt lat="46.3002" lon="2.59133">
        <ele>281.8</ele>
      </trkpt>
      <trkpt lat="46.3003" lon="2.59146">
        <ele>281.4</ele>
      </trkpt>
      <trkpt lat="46.30041" lon="2.59155">
        <ele>281.1</ele>
      </trkpt>
      <trkpt lat="46.30068" lon="2.59173">
        <ele>280.2</ele>
      </trkpt>
      <trkpt lat="46.30079" lon="2.59174">
        <ele>279.9</ele>
        <time>2016-01-08T09:06:24Z</time>
      </trkpt>
      <trkpt lat="46.30082" lon="2.5918">
        <ele>279.6</ele>
      </trkpt>
      <trkpt lat="46.30088" lon="2.59189">
        <ele>279.2</ele>
      </trkpt>
      <trkpt lat="46.30094" lon="2.592">
        <ele>278.7</ele>
      </trkpt>
      <trkpt lat="46.30102" lon="2.5922">
        <ele>277.9</ele>
      </trkpt>
      <trkpt lat="46.3012" lon="2.59261">
        <ele>276.9</ele>
      </trkpt>
      <trkpt lat="46.30133" lon="2.59299">
        <ele>276.3</ele>
      </trkpt>
      <trkpt lat="46.30146" lon="2.5934">
        <ele>275.4</ele>
      </trkpt>
      <trkpt lat="46.30162" lon="2.59384">
        <ele>274.5</ele>
      </trkpt>
      <trkpt lat="46.30174" lon="2.59414">
        <ele>273.8</ele>
      </trkpt>
      <trkpt lat="46.30186" lon="2.59441">
        <ele>273.1</ele>
      </trkpt>
      <trkpt lat="46.302" lon="2.59471">
        <ele>272.4</ele>
      </trkpt>
      <trkpt lat="46.30214" lon="2.5951">
        <ele>272</ele>
      </trkpt>
      <trkpt lat="46.30225" lon="2.59544">
        <ele>272.3</ele>
      </trkpt>
      <trkpt lat="46.30234" lon="2.59575">
        <ele>272.5</ele>
      </trkpt>
      <trkpt lat="46.3024" lon="2.59597">
        <ele>272.5</ele>
      </trkpt>
      <trkpt lat="46.30244" lon="2.59616">
        <ele>272.5</ele>
      </trkpt>
      <trkpt lat="46.30246" lon="2.59628">
        <ele>272.6</ele>
        <time>2016-01-08T09:06:24Z</time>
      </trkpt>
      <trkpt lat="46.30249" lon="2.59649">
        <ele>272.8</ele>
      </trkpt>
      <trkpt lat="46.30253" lon="2.59678">
        <ele>272.8</ele>
      </trkpt>
      <trkpt lat="46.30256" lon="2.59696">
        <ele>272.6</ele>
      </trkpt>
      <trkpt lat="46.30259" lon="2.5971">
        <ele>272.4</ele>
      </trkpt>
      <trkpt lat="46.3026" lon="2.59723">
        <ele>272.2</ele>
      </trkpt>
      <trkpt lat="46.30267" lon="2.59738">
        <ele>272</ele>
      </trkpt>
      <trkpt lat="46.30273" lon="2.59752">
        <ele>271.5</ele>
      </trkpt>
      <trkpt lat="46.30277" lon="2.59765">
        <ele>269.4</ele>
      </trkpt>
      <trkpt lat="46.30286" lon="2.59784">
        <ele>266.4</ele>
      </trkpt>
      <trkpt lat="46.30293" lon="2.59795">
        <ele>264.6</ele>
      </trkpt>
      <trkpt lat="46.30305" lon="2.59812">
        <ele>262</ele>
      </trkpt>
      <trkpt lat="46.30314" lon="2.59826">
        <ele>259.9</ele>
      </trkpt>
      <trkpt lat="46.30323" lon="2.59843">
        <ele>257</ele>
      </trkpt>
      <trkpt lat="46.30331" lon="2.59848">
        <ele>256</ele>
        <time>2016-01-08T09:06:24Z</time>
      </trkpt>
      <trkpt lat="46.30348" lon="2.5985">
        <ele>255.2</ele>
      </trkpt>
      <trkpt lat="46.30369" lon="2.59854">
        <ele>253.2</ele>
      </trkpt>
      <trkpt lat="46.30425" lon="2.59855">
        <ele>250.7</ele>
      </trkpt>
      <trkpt lat="46.30426" lon="2.59905">
        <ele>239</ele>
        <time>2016-01-08T09:06:24Z</time>
      </trkpt>
      <trkpt lat="46.30432" lon="2.59931">
        <ele>233.2</ele>
      </trkpt>
      <trkpt lat="46.30442" lon="2.5994">
        <ele>231</ele>
        <time>2016-01-08T09:06:24Z</time>
      </trkpt>
      <trkpt lat="46.30453" lon="2.59942">
        <ele>229.8</ele>
      </trkpt>
      <trkpt lat="46.30527" lon="2.59931">
        <ele>226.5</ele>
        <time>2016-01-08T09:06:24Z</time>
      </trkpt>
      <trkpt lat="46.30586" lon="2.59919">
        <ele>222.8</ele>
      </trkpt>
      <trkpt lat="46.30617" lon="2.59915">
        <ele>222.1</ele>
      </trkpt>
      <trkpt lat="46.30654" lon="2.59898">
        <ele>221</ele>
        <time>2016-01-08T09:06:24Z</time>
      </trkpt>
      <trkpt lat="46.30674" lon="2.5988">
        <ele>220.3</ele>
      </trkpt>
      <trkpt lat="46.30694" lon="2.59863">
        <ele>221.1</ele>
      </trkpt>
      <trkpt lat="46.30741" lon="2.59802">
        <ele>217.8</ele>
      </trkpt>
      <trkpt lat="46.30769" lon="2.59752">
        <ele>213.6</ele>
        <time>2016-01-08T09:06:24Z</time>
      </trkpt>
      <trkpt lat="46.30794" lon="2.59714">
        <ele>219.8</ele>
      </trkpt>
      <trkpt lat="46.30841" lon="2.59669">
        <ele>224.4</ele>
      </trkpt>
      <trkpt lat="46.30873" lon="2.5965">
        <ele>230.3</ele>
        <time>2016-01-08T09:06:24Z</time>
      </trkpt>
      <trkpt lat="46.30944" lon="2.59653">
        <ele>237.5</ele>
        <time>2016-01-08T09:06:24Z</time>
      </trkpt>
      <trkpt lat="46.30968" lon="2.59666">
        <ele>240.1</ele>
      </trkpt>
      <trkpt lat="46.30981" lon="2.59678">
        <ele>240.9</ele>
      </trkpt>
      <trkpt lat="46.31" lon="2.59699">
        <ele>242.4</ele>
        <time>2016-01-08T09:06:24Z</time>
      </trkpt>
      <trkpt lat="46.31012" lon="2.59715">
        <ele>242.6</ele>
      </trkpt>
      <trkpt lat="46.31021" lon="2.59731">
        <ele>242.5</ele>
      </trkpt>
      <trkpt lat="46.31028" lon="2.59749">
        <ele>242.5</ele>
      </trkpt>
      <trkpt lat="46.31034" lon="2.59765">
        <ele>242.2</ele>
      </trkpt>
      <trkpt lat="46.31041" lon="2.59784">
        <ele>242.1</ele>
      </trkpt>
      <trkpt lat="46.31056" lon="2.59825">
        <ele>242.7</ele>
        <time>2016-01-08T09:06:24Z</time>
      </trkpt>
      <trkpt lat="46.31076" lon="2.59902">
        <ele>236.9</ele>
      </trkpt>
      <trkpt lat="46.31088" lon="2.59948">
        <ele>233.2</ele>
      </trkpt>
      <trkpt lat="46.31097" lon="2.59978">
        <ele>231.3</ele>
      </trkpt>
      <trkpt lat="46.31099" lon="2.59983">
        <ele>231.3</ele>
      </trkpt>
      <trkpt lat="46.31117" lon="2.60009">
        <ele>231.9</ele>
      </trkpt>
      <trkpt lat="46.3113" lon="2.60024">
        <ele>232.4</ele>
      </trkpt>
      <trkpt lat="46.31138" lon="2.60036">
        <ele>232.4</ele>
      </trkpt>
      <trkpt lat="46.31143" lon="2.6005">
        <ele>231.6</ele>
      </trkpt>
      <trkpt lat="46.31145" lon="2.60062">
        <ele>230.6</ele>
        <time>2016-01-08T09:06:24Z</time>
      </trkpt>
      <trkpt lat="46.31147" lon="2.60078">
        <ele>228.8</ele>
      </trkpt>
      <trkpt lat="46.3115" lon="2.60093">
        <ele>227.4</ele>
      </trkpt>
      <trkpt lat="46.31161" lon="2.60107">
        <ele>227.3</ele>
      </trkpt>
      <trkpt lat="46.31177" lon="2.60124">
        <ele>227.7</ele>
      </trkpt>
      <trkpt lat="46.31188" lon="2.60135">
        <ele>228.3</ele>
      </trkpt>
      <trkpt lat="46.31199" lon="2.60154">
        <ele>227.3</ele>
      </trkpt>
      <trkpt lat="46.31212" lon="2.60175">
        <ele>226.6</ele>
      </trkpt>
      <trkpt lat="46.31227" lon="2.60197">
        <ele>226.3</ele>
      </trkpt>
      <trkpt lat="46.31241" lon="2.60218">
        <ele>225.7</ele>
      </trkpt>
      <trkpt lat="46.31258" lon="2.6025">
        <ele>222.8</ele>
        <time>2016-01-08T09:06:24Z</time>
      </trkpt>
      <trkpt lat="46.31267" lon="2.60269">
        <ele>221.7</ele>
      </trkpt>
      <trkpt lat="46.31273" lon="2.60274">
        <ele>221.7</ele>
      </trkpt>
      <trkpt lat="46.31286" lon="2.60293">
        <ele>220.9</ele>
      </trkpt>
      <trkpt lat="46.31288" lon="2.60298">
        <ele>220.5</ele>
      </trkpt>
      <trkpt lat="46.3129" lon="2.60308">
        <ele>219.6</ele>
      </trkpt>
      <trkpt lat="46.31291" lon="2.60327">
        <ele>217.6</ele>
      </trkpt>
      <trkpt lat="46.31291" lon="2.60344">
        <ele>216.5</ele>
        <time>2016-01-08T09:06:24Z</time>
      </trkpt>
      <trkpt lat="46.31308" lon="2.60366">
        <ele>216.9</ele>
      </trkpt>
      <trkpt lat="46.31321" lon="2.60378">
        <ele>216.7</ele>
      </trkpt>
      <trkpt lat="46.31333" lon="2.60403">
        <ele>215.2</ele>
      </trkpt>
      <trkpt lat="46.31339" lon="2.6041">
        <ele>214.8</ele>
      </trkpt>
      <trkpt lat="46.31345" lon="2.60417">
        <ele>214.4</ele>
        <time>2016-01-08T09:06:24Z</time>
      </trkpt>
      <trkpt lat="46.31354" lon="2.604">
        <ele>216.2</ele>
        <time>2016-01-08T09:06:24Z</time>
      </trkpt>
    </trkseg>
  </trk>
</gpx>